Showing default

COSMOS 87, 1585

Orbit data source: Space-Track

COSMOS 87, 1585 is a payload satellite owned by OKB-10 (CIS) in LEO that was launched on Sat, 18 Sep 1965 UTC via a KOSMOS 65S3 launch vehicle from the Tyuratam Missile And Space Complex (TTMTR). Payload-class satellites include a variety of spacecraft equipped with specific instruments for various scientific and technological missions. These include communications satellites like Starlink; space stations such as the ISS; scientific satellites like the Hubble; Earth observation satellites from companies like Planet Labs, Umbra, and HawkEye 360; GPS; miniature CubeSats for education and research; and military/defense satellites.

Loading next visibility...
Identifier
1585, 1965-073B
Orbit
LEO
Country
Flag of CISCIS
Related business
Manufacturer
OKB-10
Mission
Spacecraft
Bus & Motor
STRELA-1 11F610, Unknown motor
Mass
50 kg wet, 50 kg dry
Launch date (UTC)
1965-09-18 (60 years ago)
Launch vehicle
KOSMOS 65S3
Launch site
Tyuratam Missile And Space Complex (TTMTR)
Object type
Payload
Rocket body
Debris
Shape & HBR
Unknown
Radar Cross Section
Medium (>0.1 m² and <1 m²)

Expand to show TLE details & history
Last TLE update: 21 hours ago

TLE from 21 hours ago
0 COSMOS 87
1 01585U 65073B   25347.25801880 -.00000103  00000-0 -45075-4 0  9994
2 01585  56.0625  63.4703 0205502 137.1235 258.5082 12.47461062742550
Epoch: 2025-12-13T06:11Z
TLE epoch observation values (Epoch: 2025-12-13T06:11:32.824Z)
Latitude
27.1899°
Longitude
-91.48366°
Altitude
1,511.963 km
Speed
7.096 km/s
True Right ascension
05h 34m 21s
True Declination
27° 03' 49"
Sunlit
Object was in full shadow at epoch
Visualization orbit readout
Latitude
Unknown
Longitude
Unknown
Altitude
Unknown
Speed
Unknown
Apparent Right ascension
Unknown
Apparent Declination
Unknown
Sunlit
N/A
Visualization observer readout
Local Sidereal Time
01:26:51
Azimuth
Unknown
Elevation
Unknown
Doppler factor
Unknown
Orbital elements
Apogee altitude
1,636.338 km
Perigee altitude
1,313.573 km
Semi-major axis
7,853.092 km
Eccentricity
0.02055
Inclination
56.0625°
RAAN
63.4703°
Arg. of periapsis
137.1235°
True anomaly
256.21289°
Mean anomaly
258.5082°
Eccentric anomaly
257.3593°
Mean motion
3.11876 °/min
Orbital period
115.43 mins
BSTAR
-0.000045075
Loading maneuver chart data...
Computing Atmospheric mass density...
Loading historical data...
Loading historical data...
Loading historical data...
Loading historical data...
Loading historical data...
Loading historical data...
Loading historical data...

Documentation

Showing up to 5 results
|